Flag for U.S.A. Weather past 2 weeks in Rancho Cucamonga, California, U.S.A.

Now
66 °F

Clear.


Feels Like: 66 °F
Forecast: 60 / 84 °F
Wind: 5 mph from West

Location: Ontario International Airport

Current Time: Sep 21, 2014 at 1:49:09 AM

Latest Report: Sep 21, 2014 at 12:53 AM


Visibility: 10 mi

Pressure: 29.92 "Hg

Humidity: 78%

Dew point: 59 °F

Location of Rancho CucamongaLocation

Historic Weather in Rancho Cucamonga — Graph

°F

Rancho Cucamonga temperature yesterday

Maximum temperature yesterday: 81 °F (at 2:53 PM)
Minimum temperature yesterday: 64 °F (at 5:53 AM)
Average temperature yesterday: 72 °F

Past Weeks' High & Low Weather Summary

 TemperatureHumidityPressure
High107 °F (Sep 14, 2:53 PM)87% (Sep 20, 5:53 AM)29.92 "Hg (Sep 20, 5:53 AM)
Low64 °F (Sep 20, 5:53 AM)13% (Sep 13, 1:53 PM)29.62 "Hg (Sep 14, 2:53 PM)
Average83 °F42%29.77 "Hg
* Reported Sep 6 12:53 AM — Sep 21 12:53 AM, Rancho Cucamonga, Weather by CustomWeather, © 2014

Note: Actual official high and low records may vary slightly from our data, if they occured in-between our weather recording intervals... More about our weather records

Advertising

Rancho Cucamonga weather history for previous 24 hours

 ConditionsComfort  
Time TempWeatherWind HumidityBarometerVisibility
12:53 AM
Sep 21
66 °FClear.5 mph78%29.92 "Hg10 mi
11:53 PM
Sep 20
67 °FClear.6 mph76%29.91 "Hg10 mi
10:53 PM67 °FClear.6 mph79%29.91 "Hg10 mi
9:53 PM69 °FClear.7 mph73%29.89 "Hg10 mi
8:53 PM70 °FPassing clouds.9 mph71%29.89 "Hg10 mi
7:53 PM73 °FPassing clouds.9 mph64%29.87 "Hg10 mi
6:53 PM75 °FPassing clouds.12 mph60%29.85 "Hg10 mi
5:53 PM79 °FPassing clouds.9 mph52%29.84 "Hg10 mi
4:53 PM81 °FPassing clouds.13 mph49%29.83 "Hg10 mi
3:53 PM81 °FPassing clouds.10 mph49%29.84 "Hg10 mi
2:53 PM81 °FPassing clouds.10 mph47%29.85 "Hg10 mi
1:53 PM80 °FPassing clouds.12 mph51%29.86 "Hg10 mi
12:53 PM78 °FPassing clouds.13 mph54%29.89 "Hg10 mi
11:53 AM77 °FPassing clouds.10 mph56%29.90 "Hg9 mi
10:53 AM73 °FScattered clouds.3 mph64%29.92 "Hg8 mi
5:53 AM64 °FPassing clouds.6 mph87%29.88 "Hg10 mi
4:53 AM66 °FClear.7 mph81%29.86 "Hg10 mi
3:53 AM66 °FPassing clouds.3 mph81%29.85 "Hg10 mi
2:53 AM67 °FPassing clouds.No wind79%29.85 "Hg10 mi
1:53 AM67 °FClear.3 mph79%29.87 "Hg10 mi
Weather by CustomWeather, © 2014

See weather overviewHow to use our weather pages